Location: Newark
(45.4422°N, 16.2769°E)
Time: 23:12:28
(UTC+00:00)

Courier 1B Rocket - Pass Details

Date: 15 December 2019
Orbit: 920 x 1202 km, 28.2° (Epoch: 20 January)

Event Time Altitude Azimuth Distance (km) Brightness Sun altitude
Rises 06:56:34 0° 247° (WSW) 3,817 7.8 3.3°
Reaches altitude 10° 07:00:56 10° 223° (SW) 2,795 7.4 3.9°
Maximum altitude 07:04:02 14° 195° (SSW) 2,491 7.5 4.3°
Drops below altitude 10° 07:07:04 10° 167° (SSE) 2,706 8.3 4.7°
Sets 07:11:09 0° 143° (SE) 3,602 10.1 5.2°
